Vorticity
nan nan nan nan nan nan nan nan nan nan nan nan nan nan nan nan nan nan nan nan nan nan nan nan nan nan nan nan nan nan nan nan nan
nan 3 5 4 5 4 4 5 5 5 5 4 5 6 8 5 6 7 7 5 7 6 5 5 5 5 6 5 5 5 6 6 nan
nan 4 3 5 5 5 4 5 6 7 6 5 6 8 6 5 5 7 8 5 7 5 5 5 5 5 6 5 5 5 5 5 nan
nan 5 4 5 6 5 6 5 5 6 6 7 7 7 5 6 5 7 8 6 6 6 6 6 5 5 5 6 5 5 5 5 nan
nan 7 8 5 5 6 5 5 5 6 8 9 8 7 11 7 6 7 4 6 5 6 6 5 5 5 5 5 5 5 5 5 nan
nan 8 7 6 6 7 5 5 6 8 11 12 11 12 11 7 7 7 2 6 6 5 5 6 6 5 5 6 5 5 5 5 nan
nan 8 8 10 10 12 11 11 12 11 11 9 11 12 7 8 7 6 4 5 6 6 6 6 7 6 6 6 5 5 5 5 nan
nan 8 9 10 12 11 11 13 12 9 6 7 9 6 7 7 7 6 6 6 7 7 6 7 8 7 5 6 6 7 7 6 nan
nan 7 7 7 8 7 8 8 6 7 7 6 6 6 6 6 7 9 8 7 7 8 8 7 7 7 7 6 7 7 8 7 nan
nan 7 7 7 7 7 7 6 7 7 8 7 8 6 7 5 5 9 14 8 8 8 8 8 6 6 8 8 7 6 7 8 nan
nan 7 7 7 8 6 8 7 8 7 8 7 8 8 7 7 6 6 13 14 9 8 8 9 7 6 6 8 9 8 6 5 nan
nan 7 7 8 9 8 7 8 8 8 8 8 8 10 8 7 8 6 7 15 17 12 8 8 9 8 7 5 7 9 8 7 nan
nan 6 6 9 9 9 8 8 9 8 7 10 9 9 9 8 8 6 7 7 12 17 14 11 11 10 9 7 6 6 8 10 nan
nan 7 8 9 9 7 8 8 7 6 8 8 7 8 9 9 9 9 8 7 5 10 16 17 16 11 9 9 7 7 7 7 nan
nan 8 9 9 8 7 8 8 7 8 8 8 10 10 9 8 9 9 10 10 8 7 9 13 19 19 11 10 10 10 9 8 nan
nan 10 10 10 8 7 8 10 8 10 11 10 11 12 12 10 9 10 9 9 11 9 8 7 7 18 21 15 11 10 9 9 nan
nan 12 12 12 11 11 11 9 9 10 9 8 8 10 12 13 11 10 11 9 10 11 10 7 7 6 14 18 18 12 10 8 nan
nan 10 10 11 11 10 11 10 10 10 11 10 8 5 4 10 14 12 11 11 8 9 11 10 9 8 8 8 13 14 12 9 nan
nan 8 9 10 8 7 9 9 10 10 11 13 12 7 6 7 11 9 9 11 10 10 9 11 11 9 9 12 10 9 9 7 nan
nan nan nan nan nan nan nan nan nan nan nan nan nan nan nan nan nan nan nan nan nan nan nan nan nan nan nan nan nan nan nan nan nan
CAPE
45 12 3 0 0 0 0 1 0 0 0 1 13 14 0 0 0 0 0 0 0 5 1 0 1 0 1 0 0 0 0 0 0
48 9 0 0 0 2 1 0 1 4 1 7 7 17 0 0 0 0 0 0 0 5 1 0 0 0 0 0 0 0 0 0 0
24 4 0 0 2 9 13 10 3 0 5 9 8 18 7 0 0 0 0 0 0 11 5 0 0 0 0 0 0 0 0 0 0
6 12 12 0 6 8 25 30 27 9 5 4 9 19 27 0 0 0 0 0 0 9 7 3 0 0 0 0 0 0 0 0 0
10 23 22 2 10 11 18 23 23 11 2 2 6 19 18 0 0 0 0 0 0 3 5 6 2 0 0 0 0 0 0 0 0
0 0 0 7 2 12 12 15 25 25 6 0 0 11 0 0 0 0 0 0 0 2 13 13 8 1 1 1 0 0 0 0 0
0 0 0 17 26 31 11 17 32 23 0 0 0 0 0 0 0 0 0 0 0 1 7 11 15 10 3 1 2 1 0 0 0
0 0 0 0 0 0 0 0 0 0 0 0 0 0 0 0 0 0 0 0 0 0 2 9 63 25 15 4 2 4 1 0 0
0 0 0 0 0 0 0 0 0 0 0 0 0 0 0 0 0 0 0 0 0 0 0 4 30 161 83 29 11 19 18 5 8
0 0 0 0 0 0 0 0 0 0 0 0 0 0 0 0 0 0 0 0 0 0 0 0 5 25 230 226 173 132 108 106 89
0 0 0 0 0 0 0 0 0 0 0 0 0 0 0 0 0 0 0 0 0 0 0 0 0 1 27 319 241 243 195 187 188
0 0 0 0 0 0 0 0 0 0 0 0 0 0 0 0 0 0 0 0 0 0 0 0 0 0 0 33 312 291 234 208 236
0 0 0 0 0 0 0 0 0 0 0 0 0 0 0 0 0 0 0 0 0 0 0 0 0 0 0 3 129 287 304 298 268
0 0 0 0 0 0 0 0 0 0 0 0 0 0 0 0 0 0 0 0 0 0 0 0 0 0 0 0 16 174 242 241 295
0 0 0 0 0 0 0 0 0 0 0 0 0 0 0 0 0 0 0 0 0 0 0 0 0 0 0 0 0 171 250 194 191
0 0 0 0 0 0 0 0 0 0 0 0 0 0 0 0 0 0 0 0 0 0 0 0 0 0 0 0 0 0 129 271 303
0 0 0 0 0 0 0 0 0 0 0 0 1 0 2 0 0 0 0 0 0 0 0 0 0 0 0 0 0 0 0 20 99
0 0 0 0 0 0 0 0 10 24 5 1 0 6 24 19 9 0 0 0 0 0 0 0 0 0 0 0 0 0 0 0 50
0 0 0 0 0 0 0 0 0 1 6 2 22 41 43 58 36 32 2 0 0 0 0 0 0 0 0 0 0 0 0 0 41
0 0 0 0 0 0 0 0 0 0 0 0 4 1 0 5 47 10 8 0 14 29 0 0 0 0 0 0 0 0 0 23 120